![]() |
EMODnet Physics ERDDAP
Easier access to scientific data |
log in|
Brought to you by EMODnet Physics |
| Dataset Title: | NDBC - Collection of dew point temperature (DEWT) TimeSeries - IN SITU MultiPointTimeSeriesObservation
|
| Institution: | NDBC (Dataset ID: TS_DEWT_NDBC) |
| Information: | Summary
| License
| FGDC
| ISO 19115
| Metadata
| Background
| Subset
| Data Access Form
| Make a graph
|
| Name | Last modified | Size | Description | |
|---|---|---|---|---|
| Parent Directory | - | - | ||
| SCXA2_TS_DEWT_012018.nc | 11-Oct-2024 10:21 | 440188 | ||
| SCXA2_TS_DEWT_012019.nc | 11-Oct-2024 11:10 | 440173 | ||
| SCXA2_TS_DEWT_012020.nc | 11-Oct-2024 11:58 | 480412 | ||
| SCXA2_TS_DEWT_012021.nc | 11-Oct-2024 12:39 | 480701 | ||
| SCXA2_TS_DEWT_012022.nc | 11-Oct-2024 13:23 | 453034 | ||
| SCXA2_TS_DEWT_012023.nc | 11-Oct-2024 13:53 | 440181 | ||
| SCXA2_TS_DEWT_022018.nc | 11-Oct-2024 10:23 | 480275 | ||
| SCXA2_TS_DEWT_022019.nc | 11-Oct-2024 11:14 | 480120 | ||
| SCXA2_TS_DEWT_022020.nc | 11-Oct-2024 12:01 | 480060 | ||
| SCXA2_TS_DEWT_022021.nc | 11-Oct-2024 12:42 | 480047 | ||
| SCXA2_TS_DEWT_022023.nc | 11-Oct-2024 13:55 | 440164 | ||
| SCXA2_TS_DEWT_022026.nc | 01-Mar-2026 17:05 | 440128 | ||
| SCXA2_TS_DEWT_032018.nc | 11-Oct-2024 10:27 | 480026 | ||
| SCXA2_TS_DEWT_032019.nc | 11-Oct-2024 11:18 | 4842703 | ||
| SCXA2_TS_DEWT_032020.nc | 11-Oct-2024 12:05 | 450290 | ||
| SCXA2_TS_DEWT_032021.nc | 11-Oct-2024 12:46 | 446921 | ||
| SCXA2_TS_DEWT_032022.nc | 11-Oct-2024 13:30 | 449544 | ||
| SCXA2_TS_DEWT_032023.nc | 11-Oct-2024 13:57 | 450027 | ||
| SCXA2_TS_DEWT_032026.nc | 23-Mar-2026 17:37 | 449418 | ||
| SCXA2_TS_DEWT_042019.nc | 11-Oct-2024 11:22 | 588136 | ||
| SCXA2_TS_DEWT_042020.nc | 11-Oct-2024 12:09 | 588102 | ||
| SCXA2_TS_DEWT_042021.nc | 11-Oct-2024 12:49 | 588136 | ||
| SCXA2_TS_DEWT_042022.nc | 11-Oct-2024 13:33 | 628183 | ||
| SCXA2_TS_DEWT_042023.nc | 11-Oct-2024 13:59 | 588225 | ||
| SCXA2_TS_DEWT_052018.nc | 11-Oct-2024 10:34 | 588218 | ||
| SCXA2_TS_DEWT_052019.nc | 11-Oct-2024 11:26 | 628302 | ||
| SCXA2_TS_DEWT_052020.nc | 11-Oct-2024 12:13 | 628083 | ||
| SCXA2_TS_DEWT_052021.nc | 11-Oct-2024 12:52 | 588219 | ||
| SCXA2_TS_DEWT_052022.nc | 11-Oct-2024 13:35 | 588237 | ||
| SCXA2_TS_DEWT_052023.nc | 11-Oct-2024 14:02 | 630045 | ||
| SCXA2_TS_DEWT_062018.nc | 11-Oct-2024 10:39 | 628131 | ||
| SCXA2_TS_DEWT_062019.nc | 11-Oct-2024 11:30 | 614933 | ||
| SCXA2_TS_DEWT_062020.nc | 11-Oct-2024 12:16 | 628791 | ||
| SCXA2_TS_DEWT_062021.nc | 11-Oct-2024 12:56 | 627959 | ||
| SCXA2_TS_DEWT_062022.nc | 11-Oct-2024 13:37 | 439930 | ||
| SCXA2_TS_DEWT_062023.nc | 11-Oct-2024 14:04 | 588141 | ||
| SCXA2_TS_DEWT_072018.nc | 11-Oct-2024 10:44 | 601861 | ||
| SCXA2_TS_DEWT_072019.nc | 11-Oct-2024 11:34 | 2655515 | ||
| SCXA2_TS_DEWT_072020.nc | 11-Oct-2024 12:19 | 451026 | ||
| SCXA2_TS_DEWT_072021.nc | 11-Oct-2024 13:00 | 450069 | ||
| SCXA2_TS_DEWT_072022.nc | 11-Oct-2024 13:39 | 450364 | ||
| SCXA2_TS_DEWT_072023.nc | 11-Oct-2024 14:06 | 449310 | ||
| SCXA2_TS_DEWT_082018.nc | 11-Oct-2024 10:48 | 450010 | ||
| SCXA2_TS_DEWT_082019.nc | 11-Oct-2024 11:37 | 629942 | ||
| SCXA2_TS_DEWT_082020.nc | 11-Oct-2024 12:22 | 588151 | ||
| SCXA2_TS_DEWT_082021.nc | 11-Oct-2024 13:04 | 588100 | ||
| SCXA2_TS_DEWT_082022.nc | 11-Oct-2024 13:42 | 588194 | ||
| SCXA2_TS_DEWT_082023.nc | 11-Oct-2024 14:09 | 631400 | ||
| SCXA2_TS_DEWT_092018.nc | 11-Oct-2024 10:52 | 588177 | ||
| SCXA2_TS_DEWT_092019.nc | 11-Oct-2024 11:42 | 588201 | ||
| SCXA2_TS_DEWT_092020.nc | 11-Oct-2024 12:25 | 628243 | ||
| SCXA2_TS_DEWT_092021.nc | 11-Oct-2024 13:08 | 627601 | ||
| SCXA2_TS_DEWT_092022.nc | 11-Oct-2024 13:44 | 588231 | ||
| SCXA2_TS_DEWT_092023.nc | 11-Oct-2024 14:11 | 588209 | ||
| SCXA2_TS_DEWT_102018.nc | 11-Oct-2024 10:56 | 627293 | ||
| SCXA2_TS_DEWT_102019.nc | 11-Oct-2024 11:46 | 627819 | ||
| SCXA2_TS_DEWT_102020.nc | 11-Oct-2024 12:29 | 418795 | ||
| SCXA2_TS_DEWT_102021.nc | 11-Oct-2024 13:11 | 628009 | ||
| SCXA2_TS_DEWT_102022.nc | 11-Oct-2024 13:46 | 628326 | ||
| SCXA2_TS_DEWT_102023.nc | 11-Oct-2024 14:14 | 588212 | ||
| SCXA2_TS_DEWT_112018.nc | 11-Oct-2024 11:00 | 588195 | ||
| SCXA2_TS_DEWT_112019.nc | 11-Oct-2024 11:50 | 588182 | ||
| SCXA2_TS_DEWT_112020.nc | 11-Oct-2024 12:32 | 3139412 | ||
| SCXA2_TS_DEWT_112021.nc | 11-Oct-2024 13:15 | 449656 | ||
| SCXA2_TS_DEWT_112022.nc | 11-Oct-2024 13:48 | 449437 | ||
| SCXA2_TS_DEWT_112023.nc | 11-Oct-2024 14:16 | 448519 | ||
| SCXA2_TS_DEWT_122017.nc | 11-Oct-2024 10:16 | 449540 | ||
| SCXA2_TS_DEWT_122018.nc | 11-Oct-2024 11:05 | 450429 | ||
| SCXA2_TS_DEWT_122019.nc | 11-Oct-2024 11:54 | 480375 | ||
| SCXA2_TS_DEWT_122021.nc | 11-Oct-2024 13:19 | 440090 | ||
| SCXA2_TS_DEWT_122022.nc | 11-Oct-2024 13:50 | 465898 | ||
| SCXA2_TS_DEWT_122023.nc | 11-Oct-2024 14:19 | 475282 | ||